DW2989 Weather Reports


time (UTC)temp
C
wind
direction
speed
KPH
gust
KPH
rain 1hr
cm
rain 24hr
cm
rain mn
cm
humidity
%
barometer
mb
20260502123028 -1 13 1.6 6.4 0.00 0.00 0.00 70 1019.6
20260502121559 -3 13 3.2 6.4 0.00 0.00 0.00 74 1019.7
20260502114554 -3 14 3.2 8.0 0.00 0.00 0.00 72 1019.7
20260502113104 -2 331 0.0 3.2 0.00 0.00 0.00 70 1019.7
20260502111557 -2 331 3.2 4.8 0.00 0.00 0.00 69 1019.6
20260502110052 -1 331 8.0 14.5 0.00 0.00 0.00 68 1019.7
20260502104559 -2 5 6.4 14.5 0.00 0.00 0.00 70 1019.7
20260502103048 -2 344 4.8 14.5 0.00 0.00 0.00 72 1019.8
20260502101602 -2 32 4.8 9.7 0.00 0.00 0.00 72 1019.8
20260502071517 0 355 6.4 8.0 0.00 0.00 0.00 66 1020.2
20260502070017 1 360 4.8 8.0 0.00 0.00 0.00 63 1020.4
20260502064511 0 360 3.2 8.0 0.00 0.00 0.00 62 1020.4
20260502063017 1 336 4.8 8.0 0.00 0.00 0.00 59 1020.4
20260502061512 1 343 0.0 6.4 0.00 0.00 0.00 62 1020.5
20260502060020 1 344 3.2 6.4 0.00 0.00 0.00 59 1020.6
20260502054506 1 330 0.0 4.8 0.00 0.00 0.00 59 1020.6
20260502053059 1 330 3.2 8.0 0.00 0.00 0.00 60 1020.7
20260502051555 2 271 4.8 9.7 0.00 0.00 0.00 57 1020.5
20260502050053 2 266 6.4 9.7 0.00 0.00 0.00 53 1020.4
20260502044549 3 360 4.8 6.4 0.00 0.00 0.00 49 1020.4
20260502043053 5 153 3.2 4.8 0.00 0.00 0.00 43 1020.4
20260502041604 6 107 3.2 4.8 0.00 0.00 0.00 36 1020.3
20260502040050 6 106 4.8 9.7 0.00 0.00 0.00 34 1020.2
20260502034539 6 95 6.4 9.7 0.00 0.00 0.00 35 1020.3
20260502033033 6 74 0.0 6.4 0.00 0.00 0.00 34 1020.1
20260502031527 6 74 4.8 8.0 0.00 0.00 0.00 32 1019.9
20260502030022 7 74 3.2 6.4 0.00 0.00 0.00 31 1019.7
20260502024519 7 74 4.8 8.0 0.00 0.00 0.00 30 1019.4
20260502023026 8 76 3.2 6.4 0.00 0.00 0.00 27 1019.3
20260502021507 10 76 3.2 14.5 0.00 0.00 0.00 24 1019.2
20260502020003 11 67 9.7 14.5 0.00 0.00 0.00 23 1019.1
20260502014607 12 89 4.8 22.5 0.00 0.00 0.00 21 1019.1
20260502013101 12 92 4.8 17.7 0.00 0.00 0.00 21 1018.9
20260502011605 13 105 9.7 17.7 0.00 0.00 0.00 20 1018.7
20260502010049 13 68 11.3 25.7 0.00 0.00 0.00 20 1018.6
20260502004646 13 59 9.7 20.9 0.00 0.00 0.00 21 1018.7
20260502003042 14 86 8.0 20.9 0.00 0.00 0.00 20 1018.7
20260502001544 14 80 9.7 32.2 0.00 0.00 0.00 20 1018.7
20260502000055 14 78 14.5 27.4 0.00 0.00 0.00 19 1018.8
20260501234539 14 72 14.5 25.7 0.00 0.00 0.00 20 1018.7
20260501233038 14 63 11.3 25.7 0.00 0.00 0.00 21 1018.9
20260501231533 14 59 17.7 24.1 0.00 0.00 0.00 20 1019.0
20260501230104 14 60 19.3 27.4 0.00 0.00 0.00 20 1019.0
20260501224530 14 69 11.3 19.3 0.00 0.00 0.00 21 1019.1
20260501223027 13 81 19.3 24.1 0.00 0.00 0.00 21 1019.2
20260501221527 14 86 11.3 24.1 0.00 0.00 0.00 20 1019.3
20260501220026 13 61 17.7 29.0 0.00 0.00 0.00 21 1019.5
20260501214524 14 88 12.9 27.4 0.00 0.00 0.00 22 1019.6
20260501213026 13 57 14.5 24.1 0.00 0.00 0.00 22 1019.8
20260501211520 13 101 9.7 25.7 0.00 0.00 0.00 23 1020.1
20260501210016 13 93 8.0 25.7 0.00 0.00 0.00 24 1020.1
20260501204516 13 115 16.1 27.4 0.00 0.00 0.00 24 1020.4
20260501203045 13 107 6.4 29.0 0.00 0.00 0.00 24 1020.4
20260501201544 13 57 14.5 29.0 0.00 0.00 0.00 24 1020.5
20260501200012 13 98 17.7 24.1 0.00 0.03 0.00 24 1020.7
20260501194515 13 72 11.3 30.6 0.00 0.03 0.00 25 1020.8
20260501193011 12 71 11.3 29.0 0.00 0.03 0.00 25 1021.0
20260501191508 12 69 14.5 22.5 0.00 0.03 0.00 25 1021.0
20260501190008 12 90 9.7 29.0 0.00 0.03 0.00 24 1021.1
20260501184504 12 64 12.9 24.1 0.00 0.03 0.00 27 1021.2
20260501183105 11 86 6.4 24.1 0.00 0.03 0.00 27 1021.3
20260501181559 11 94 3.2 24.1 0.00 0.03 0.00 26 1021.3
20260501180057 11 97 8.0 22.5 0.00 0.03 0.00 29 1021.4
20260501174555 11 36 14.5 22.5 0.00 0.03 0.00 30 1021.5
20260501173106 11 86 3.2 17.7 0.00 0.03 0.00 30 1021.7
20260501171549 11 73 11.3 22.5 0.00 0.03 0.00 30 1021.8
20260501170047 10 97 11.3 17.7 0.00 0.05 0.00 31 1022.0
20260501164612 10 44 16.1 24.1 0.00 0.05 0.00 32 1022.0
20260501163046 10 39 12.9 25.7 0.00 0.05 0.00 33 1021.9
20260501161542 10 37 12.9 22.5 0.00 0.05 0.00 36 1021.9
20260501160038 9 22 12.9 20.9 0.00 0.10 0.00 37 1021.9
20260501154543 8 42 3.2 12.9 0.00 0.10 0.00 41 1022.0
20260501153036 8 105 3.2 9.7 0.00 0.10 0.00 44 1022.2
20260501151542 7 29 8.0 14.5 0.00 0.10 0.00 45 1022.3
20260501150034 7 42 3.2 8.0 0.00 0.13 0.00 50 1022.5
20260501144535 6 42 1.6 8.0 0.00 0.13 0.00 52 1022.5
20260501143048 5 43 4.8 8.0 0.00 0.13 0.00 56 1022.5
20260501141503 3 44 3.2 6.4 0.00 0.13 0.00 65 1022.5
20260501140002 2 44 0.0 6.4 0.00 0.13 0.00 72 1022.6